This is the latest recevied weather packets stored in our database for station/object PP5CI-13. If no packets are shown the sender has not sent any weather packets the latest 10 day(s).
| Time | Temp. | Humidity | Pressure | Rain* | Wind** | Luminosity | Snow |
|---|---|---|---|---|---|---|---|
| 1777221934 | 25.56° C | 93% | 1010.2 hPa | 0 mm | - | - | - |
| 1777221323 | 26.11° C | 89% | 1010.2 hPa | 0 mm | - | - | - |
| 1777220728 | 26.67° C | 89% | 1011.2 hPa | 0 mm | - | - | - |
| 1777220127 | 26.11° C | 90% | 1011.2 hPa | 0 mm | - | - | - |
| 1777219522 | 26.11° C | 90% | 1011.2 hPa | 0 mm | - | - | - |
| 1777218928 | 26.11° C | 90% | 1011.2 hPa | 0 mm | - | - | - |
| 1777218334 | 26.11° C | 91% | 1011.2 hPa | 0 mm | - | - | - |
| 1777217722 | 26.11° C | 91% | 1010.8 hPa | 0 mm | - | - | - |
| 1777217128 | 26.11° C | 92% | 1010.6 hPa | 0 mm | - | - | - |
| 1777216526 | 25.56° C | 90% | 1011.2 hPa | 0 mm | - | - | - |
| 1777215922 | 26.11° C | 92% | 1011.2 hPa | 0 mm | - | - | - |
| 1777215328 | 25.56° C | 92% | 1011.2 hPa | 0 mm | - | - | - |
| 1777214734 | 25.56° C | 92% | 1011.2 hPa | 0 mm | - | - | - |
| 1777214122 | 25.56° C | 92% | 1011.2 hPa | 0 mm | - | - | - |
| 1777213528 | 25.56° C | 91% | 1011.4 hPa | 0 mm | - | - | - |
| 1777212926 | 25.56° C | 92% | 1012.2 hPa | 0 mm | - | - | - |
| 1777212322 | 25.56° C | 93% | 1012.2 hPa | 0 mm | - | - | - |
| 1777211729 | 25° C | 94% | 1012.2 hPa | 0 mm | - | - | - |
| 1777211134 | 25° C | 96% | 1012.2 hPa | 0 mm | - | - | - |
| 1777210522 | 25° C | 96% | 1012.2 hPa | 0 mm | - | - | - |
| 1777209928 | 24.44° C | 96% | 1012.2 hPa | 0 mm | - | - | - |
| 1777209327 | 24.44° C | 96% | 1012.2 hPa | 0 mm | - | - | - |
| 1777208722 | 24.44° C | 97% | 1012.2 hPa | 0 mm | - | - | - |
| 1777208128 | 24.44° C | 98% | 1012.2 hPa | 0 mm | - | - | - |
| 1777207534 | 24.44° C | 98% | 1012.2 hPa | 0 mm | - | - | - |
* Rain latest hour (hover to see other rain measurements)
** Current wind speed in m/s (hover to see current wind gust speed)